EW9998 Weather Reports


time (UTC)temp
C
wind
direction
speed
KPH
gust
KPH
rain 1hr
cm
rain 24hr
cm
rain mn
cm
humidity
%
barometer
mb
20260506191547 15 360 0.0 1.6 0.05 0.97 0.97 90 1002.4
20260506190045 15 244 0.0 12.9 0.05 0.97 0.97 91 1002.5
20260506184548 15 216 0.0 3.2 0.05 0.97 0.97 91 1002.5
20260506183043 15 203 0.0 0.0 0.05 0.94 0.94 92 1002.6
20260506181530 15 360 0.0 4.8 0.08 0.91 0.91 92 1002.8
20260506180034 15 271 0.0 9.7 0.13 0.91 0.91 91 1002.9
20260506174505 15 360 0.0 11.3 0.15 0.91 0.91 90 1002.9
20260506173005 15 360 0.0 6.4 0.18 0.89 0.89 90 1002.8
20260506171555 15 168 1.6 9.7 0.18 0.84 0.84 89 1002.8
20260506170047 15 251 0.0 4.8 0.15 0.79 0.79 89 1002.8
20260506164537 15 225 0.0 8.0 0.18 0.76 0.76 89 1002.8
20260506163044 15 208 0.0 8.0 0.15 0.71 0.71 87 1003.1
20260506161544 15 173 6.4 14.5 0.15 0.66 0.66 86 1003.0
20260506160031 15 360 3.2 9.7 0.13 0.61 0.61 86 1003.2
20260506154531 15 214 6.4 14.5 0.15 0.58 0.58 87 1003.2
20260506153028 14 234 4.8 16.1 0.20 0.56 0.56 86 1003.3
20260506151527 14 234 3.2 9.7 0.20 0.51 0.51 89 1003.6
20260506150029 14 220 0.0 6.4 0.23 0.48 0.48 90 1003.8
20260506144514 14 360 0.0 1.6 0.28 0.43 0.43 90 1003.9
20260506143014 14 223 1.6 11.3 0.25 0.36 0.36 90 1004.0
20260506141513 14 219 0.0 1.6 0.25 0.30 0.30 90 1004.3
20260506140012 15 245 3.2 11.3 0.18 0.23 0.23 88 1004.4
20260506134523 15 210 1.6 14.5 0.10 0.15 0.15 87 1004.4
20260506133011 15 237 0.0 8.0 0.05 0.10 0.10 86 1004.3
20260506131509 15 183 1.6 6.4 0.03 0.05 0.05 83 1004.2
20260506130008 15 276 3.2 11.3 0.03 0.05 0.05 81 1004.0
20260506124555 15 360 1.6 9.7 0.03 0.05 0.05 82 1004.1
20260506123055 14 165 1.6 8.0 0.03 0.05 0.05 86 1004.1
20260506121601 14 254 0.0 0.0 0.00 0.03 0.03 87 1004.1
20260506120051 14 254 0.0 0.0 0.00 0.03 0.03 85 1004.5
20260506114554 15 254 0.0 0.0 0.00 0.03 0.03 83 1004.7
20260506113051 15 254 0.0 0.0 0.00 0.03 0.03 79 1004.7
20260506111607 15 254 0.0 3.2 0.00 0.03 0.03 76 1004.5
20260506110050 15 253 0.0 8.0 0.00 0.03 0.03 73 1004.2
20260506104529 16 275 0.0 0.0 0.00 0.03 0.03 72 1004.0
20260506103029 16 274 0.0 6.4 0.00 0.03 0.03 65 1004.1
20260506101508 17 260 1.6 9.7 0.00 0.03 0.03 64 1003.9
20260506100008 16 360 1.6 4.8 0.00 0.03 0.03 63 1003.8
20260506094550 17 219 0.0 6.4 0.00 0.03 0.03 64 1003.8
20260506093053 16 248 1.6 6.4 0.00 0.03 0.03 63 1004.0
20260506091531 16 286 1.6 8.0 0.00 0.03 0.03 63 1003.9
20260506090028 16 208 3.2 12.9 0.00 0.03 0.03 66 1003.9
20260506084507 13 360 0.0 3.2 0.00 0.03 0.03 88 1004.0
20260506083005 12 360 0.0 4.8 0.00 0.03 0.03 92 1004.1
20260506081550 12 360 0.0 1.6 0.00 0.03 0.03 94 1004.3
20260506073026 11 360 0.0 4.8 0.00 0.03 0.03 95 1004.5
20260506071559 11 360 0.0 3.2 0.00 0.03 0.03 95 1004.7
20260506070125 12 15 0.0 0.0 0.00 0.03 0.03 96 1004.7
20260506061542 12 360 0.0 0.0 0.00 0.03 0.03 96 1005.3
20260506044519 12 32 0.0 0.0 0.03 0.03 0.03 94 1005.8
20260506043014 12 32 0.0 0.0 0.03 0.03 0.03 93 1006.0
20260506041616 12 32 0.0 0.0 0.03 0.03 0.03 93 1005.9
20260506040100 13 33 0.0 0.0 0.00 0.00 0.00 92 1005.9
20260506034600 13 32 0.0 3.2 0.00 0.00 0.00 92 1005.8
20260506033056 13 32 0.0 0.0 0.00 0.00 0.00 92 1005.6
20260506031557 14 32 0.0 3.2 0.00 0.00 0.00 92 1005.6
20260506030055 14 30 1.6 3.2 0.00 0.00 0.00 91 1005.6
20260506024600 14 249 0.0 4.8 0.00 0.00 0.00 90 1005.5
20260506023053 15 236 0.0 3.2 0.00 0.00 0.00 89 1005.6
20260506021551 15 211 0.0 3.2 0.00 0.00 0.00 87 1005.5
20260506020105 15 200 0.0 3.2 0.00 0.00 0.00 84 1005.5
20260506014607 15 186 0.0 1.6 0.00 0.00 0.00 84 1005.3
20260506013049 15 186 0.0 0.0 0.00 0.00 0.00 82 1005.1
20260506011612 16 186 0.0 0.0 0.00 0.00 0.00 80 1005.1
20260506010049 16 186 0.0 0.0 0.00 0.00 0.00 77 1005.0
20260506004601 17 186 0.0 3.2 0.00 0.00 0.00 73 1004.9
20260506003029 16 190 0.0 3.2 0.00 0.00 0.00 73 1004.9
20260506001529 17 188 0.0 0.0 0.00 0.00 0.00 73 1004.5
20260506000010 17 189 0.0 0.0 0.00 0.00 0.00 70 1004.3
20260505234524 17 360 0.0 0.0 0.00 0.00 0.00 66 1004.2
20260505233046 18 188 0.0 0.0 0.00 0.00 0.00 65 1004.2
20260505231548 18 190 0.0 0.0 0.00 0.00 0.00 63 1004.0
20260505230049 18 189 0.0 1.6 0.00 0.00 0.00 62 1004.1
20260505224537 18 188 0.0 3.2 0.00 0.00 0.00 62 1004.1
20260505223010 18 360 0.0 3.2 0.00 0.00 0.00 64 1004.1
20260505221508 18 360 1.6 3.2 0.00 0.00 0.00 62 1003.9
20260505220054 18 360 0.0 4.8 0.00 0.00 0.00 61 1004.1
20260505214554 19 360 1.6 6.4 0.00 0.00 0.00 57 1004.1
20260505213054 21 360 4.8 17.7 0.00 0.00 0.00 47 1004.3
20260505211552 24 244 3.2 30.6 0.00 0.00 0.00 32 1002.7
20260505210052 24 150 4.8 16.1 0.00 0.00 0.00 32 1001.9
20260505204554 24 154 6.4 12.9 0.00 0.00 0.00 31 1001.8
20260505203058 24 216 6.4 24.1 0.00 0.00 0.00 32 1001.7
20260505201550 25 240 4.8 14.5 0.00 0.00 0.00 31 1001.9
20260505200029 25 263 6.4 17.7 0.00 0.00 0.00 30 1002.0
20260505194534 25 159 4.8 16.1 0.00 0.00 0.00 26 1001.9
20260505193009 26 221 3.2 16.1 0.00 0.00 0.00 26 1002.3